Weather History for Buckeye, AZ

Change the Weather History Date:

Saturday, June 29, 2013

  Actual Average (KGYR) Record (KGYR)
Temperature  
Mean Temperature 98 °F -  
Max Temperature 113 °F 104 °F 118 °F (2001)
Min Temperature 84 °F 75 °F 66 °F (1997)
Cooling Degree Days 34    
Growing Degree Days 48 (Base 50)    
Moisture  
Dew Point 44 °F    
Average Humidity 16    
Maximum Humidity 35    
Minimum Humidity 8    
Precipitation  
Precipitation 0.00 in - - ()
Sea Level Pressure  
Sea Level Pressure 29.73 in    
Wind  
Wind Speed 8 mph (South)    
Max Wind Speed 20 mph    
Max Gust Speed 23 mph    
Visibility 10 miles    
Events      
Averages and records for this station are not official NWS values.
T = Trace of Precipitation, MM = Missing Value Source: NWS Daily Summary

Daily Weather History Graph

Daily Weather History Graph

Search for Another Location

Airport:

Trip Planner

Search our weather history database for the weather conditions in past years. The results will help you decide how hot, cold, wet, or windy it might be!

Date:

Astronomy

Jun. 29, 2013 Rise Set
Actual Time 5:24 AM MST 7:44 PM MST
Civil Twilight 4:55 AM MST 8:13 PM MST
Nautical Twilight 4:19 AM MST 8:48 PM MST
Astronomical Twilight 3:41 AM MST 9:27 PM MST
Moon No Moon Rise 12:16 PM MST (6/29)
Length of Visible Light 15h 18m
Length of Day
14h 20m
Waning Gibbous, 54% of the Moon is Illuminated
Jun 29
Waning Gibbous
Jun 29
Last Quarter
Jul 8
New
Jul 15
First Quarter
Jul 22
Full

Hourly Weather History & Observations

Time (MST) Temp. Heat Index Dew Point Humidity Pressure Visibility Wind Dir Wind Speed Gust Speed Precip Events Conditions
12:15 AM 93.2 °F - 42.8 °F 17% 29.73 in 10.0 mi East 6.9 mph - N/A   Clear
12:35 AM 91.4 °F - 42.8 °F 18% 29.73 in 10.0 mi ENE 5.8 mph - N/A   Clear
12:55 AM 93.2 °F - 41.0 °F 16% 29.74 in 10.0 mi East 6.9 mph - N/A   Clear
1:15 AM 93.2 °F - 39.2 °F 15% 29.74 in 10.0 mi East 10.4 mph - N/A   Clear
1:35 AM 91.4 °F - 44.6 °F 20% 29.74 in 10.0 mi ESE 11.5 mph - N/A   Clear
1:55 AM 91.4 °F - 42.8 °F 18% 29.73 in 10.0 mi East 8.1 mph - N/A   Clear
2:15 AM 91.4 °F - 39.2 °F 16% 29.73 in 10.0 mi East 4.6 mph - N/A   Clear
2:35 AM 91.4 °F - 39.2 °F 16% 29.73 in 10.0 mi ENE 6.9 mph - N/A   Clear
2:55 AM 91.4 °F - 41.0 °F 17% 29.73 in 10.0 mi ENE 4.6 mph - N/A   Scattered Clouds
3:15 AM 91.4 °F - 39.2 °F 16% 29.73 in 10.0 mi ENE 3.5 mph - N/A   Overcast
3:35 AM 87.8 °F - 37.4 °F 17% 29.73 in 10.0 mi East 3.5 mph - N/A   Overcast
3:55 AM 89.6 °F - 44.6 °F 21% 29.74 in 10.0 mi ENE 3.5 mph - N/A   Overcast
4:15 AM 91.4 °F - 41.0 °F 17% 29.74 in 10.0 mi SE 3.5 mph - N/A   Overcast
4:35 AM 84.2 °F - 41.0 °F 22% 29.75 in 10.0 mi WSW 6.9 mph - N/A   Overcast
4:55 AM 84.2 °F - 42.8 °F 23% 29.75 in 10.0 mi South 6.9 mph - N/A   Overcast
5:15 AM 84.2 °F - 44.6 °F 25% 29.75 in 9.0 mi SW 3.5 mph - N/A   Mostly Cloudy
5:35 AM 84.2 °F - 39.2 °F 20% 29.75 in 10.0 mi NW 3.5 mph - N/A   Partly Cloudy
5:55 AM 84.2 °F - 39.2 °F 20% 29.76 in 10.0 mi Calm Calm - N/A   Scattered Clouds
6:15 AM 84.2 °F - 48.2 °F 29% 29.76 in 8.0 mi SE 4.6 mph - N/A   Partly Cloudy
6:35 AM 84.2 °F 82.8 °F 53.6 °F 35% 29.76 in 5.0 mi East 3.5 mph - N/A   Scattered Clouds
6:55 AM 87.8 °F - 39.2 °F 18% 29.78 in 8.0 mi NNW 4.6 mph - N/A   Partly Cloudy
7:15 AM 89.6 °F - 39.2 °F 17% 29.79 in 8.0 mi NNE 3.5 mph - N/A   Clear
7:35 AM 91.4 °F - 44.6 °F 20% 29.78 in 10.0 mi ESE 6.9 mph - N/A   Clear
7:55 AM 93.2 °F - 44.6 °F 19% 29.79 in 10.0 mi ESE 4.6 mph - N/A   Clear
8:15 AM 91.4 °F - 48.2 °F 23% 29.79 in 10.0 mi East 8.1 mph - N/A   Clear
8:35 AM 96.8 °F - 50.0 °F 20% 29.79 in 9.0 mi ESE 11.5 mph - N/A   Clear
8:55 AM 96.8 °F - 48.2 °F 19% 29.79 in 9.0 mi ESE 9.2 mph - N/A   Clear
9:15 AM 98.6 °F - 50.0 °F 19% 29.79 in 9.0 mi ESE 9.2 mph - N/A   Clear
9:35 AM 104.0 °F - 41.0 °F 12% 29.78 in 9.0 mi ENE 19.6 mph 23.0 mph N/A   Clear
9:55 AM 107.6 °F - 39.2 °F 10% 29.78 in 10.0 mi ENE 18.4 mph - N/A   Clear
10:15 AM 107.6 °F - 41.0 °F 10% 29.78 in 10.0 mi East 13.8 mph - N/A   Clear
10:35 AM 105.8 °F - 44.6 °F 13% 29.78 in 10.0 mi East 13.8 mph - N/A   Clear
10:55 AM 105.8 °F - 46.4 °F 14% 29.78 in 10.0 mi East 12.7 mph - N/A   Clear
11:15 AM 105.8 °F - 44.6 °F 13% 29.78 in 10.0 mi East 13.8 mph - N/A   Clear
11:35 AM 109.4 °F - 42.8 °F 11% 29.77 in 10.0 mi East 13.8 mph - N/A   Clear
11:55 AM 109.4 °F - 42.8 °F 11% 29.77 in 10.0 mi East 11.5 mph - N/A   Clear
12:15 PM 111.2 °F - 39.2 °F 9% 29.77 in 10.0 mi ESE 10.4 mph - N/A   Clear
12:35 PM 113.0 °F - 41.0 °F 9% 29.76 in 10.0 mi South 11.5 mph - N/A   Clear
12:55 PM 113.0 °F - 37.4 °F 8% 29.75 in 10.0 mi South 10.4 mph - N/A   Clear
1:15 PM 113.0 °F - 37.4 °F 8% 29.75 in 10.0 mi SSW 9.2 mph 19.6 mph N/A   Clear
1:35 PM 113.0 °F - 37.4 °F 8% 29.74 in 10.0 mi SSW 13.8 mph 20.7 mph N/A   Unknown
1:55 PM 113.0 °F - 37.4 °F 8% 29.74 in 10.0 mi SW 11.5 mph - N/A   Unknown
2:15 PM 113.0 °F - 39.2 °F 8% 29.73 in 10.0 mi SSW 6.9 mph - N/A   Unknown
2:35 PM 113.0 °F - 39.2 °F 8% 29.73 in 10.0 mi SW 11.5 mph 19.6 mph N/A   Unknown
2:55 PM 113.0 °F - 39.2 °F 8% 29.72 in 10.0 mi SW 10.4 mph 19.6 mph N/A   Unknown
3:15 PM 113.0 °F - 41.0 °F 9% 29.71 in 10.0 mi SSW 13.8 mph 20.7 mph N/A   Clear
3:35 PM 113.0 °F - 41.0 °F 9% 29.71 in 10.0 mi SW 8.1 mph 18.4 mph N/A   Clear
3:55 PM 113.0 °F - 41.0 °F 9% 29.70 in 10.0 mi WSW 11.5 mph - N/A   Clear
4:15 PM 113.0 °F - 44.6 °F 10% 29.70 in 10.0 mi SW 12.7 mph - N/A   Clear
4:35 PM 113.0 °F - 44.6 °F 10% 29.69 in 10.0 mi SW 8.1 mph 16.1 mph N/A   Clear
4:55 PM 113.0 °F - 41.0 °F 9% 29.68 in 10.0 mi SW 6.9 mph - N/A   Clear
5:15 PM 111.2 °F - 42.8 °F 10% 29.68 in 10.0 mi WSW 10.4 mph - N/A   Clear
5:35 PM 111.2 °F - 41.0 °F 9% 29.67 in 10.0 mi WSW 8.1 mph - N/A   Clear
5:55 PM 111.2 °F - 42.8 °F 10% 29.67 in 10.0 mi SW 8.1 mph - N/A   Clear
6:15 PM 111.2 °F - 44.6 °F 11% 29.67 in 10.0 mi WSW 9.2 mph - N/A   Clear
6:35 PM 109.4 °F - 44.6 °F 11% 29.67 in 10.0 mi WSW 10.4 mph - N/A   Clear
6:55 PM 107.6 °F - 46.4 °F 13% 29.67 in 10.0 mi WSW 9.2 mph - N/A   Clear
7:15 PM 104.0 °F - 50.0 °F 16% 29.67 in 10.0 mi SW 10.4 mph - N/A   Clear
7:35 PM 104.0 °F - 48.2 °F 15% 29.68 in 10.0 mi SW 9.2 mph - N/A   Clear
7:55 PM 102.2 °F - 48.2 °F 16% 29.68 in 10.0 mi SW 9.2 mph - N/A   Clear
8:15 PM 100.4 °F - 50.0 °F 18% 29.68 in 10.0 mi SW 11.5 mph - N/A   Clear
8:35 PM 100.4 °F - 50.0 °F 18% 29.69 in 10.0 mi SW 10.4 mph - N/A   Partly Cloudy
8:55 PM 98.6 °F - 50.0 °F 19% 29.70 in 10.0 mi SW 10.4 mph - N/A   Partly Cloudy
9:15 PM 98.6 °F - 50.0 °F 19% 29.71 in 10.0 mi SW 8.1 mph - N/A   Scattered Clouds
9:35 PM 96.8 °F - 50.0 °F 20% 29.71 in 10.0 mi SW 6.9 mph - N/A   Mostly Cloudy
9:55 PM 95.0 °F - 50.0 °F 22% 29.72 in 10.0 mi WSW 4.6 mph - N/A   Partly Cloudy
10:15 PM 95.0 °F - 50.0 °F 22% 29.72 in 10.0 mi SSW 3.5 mph - N/A   Clear
10:35 PM 95.0 °F - 50.0 °F 22% 29.72 in 10.0 mi Calm Calm - N/A   Partly Cloudy
10:55 PM 95.0 °F - 50.0 °F 22% 29.72 in 10.0 mi SW 6.9 mph - N/A   Clear
11:15 PM 95.0 °F - 50.0 °F 22% 29.73 in 10.0 mi SW 4.6 mph - N/A   Clear
11:35 PM 93.2 °F - 50.0 °F 23% 29.73 in 10.0 mi West 5.8 mph - N/A   Clear
11:55 PM 93.2 °F - 50.0 °F 23% 29.73 in 10.0 mi West 4.6 mph - N/A   Partly Cloudy